When you browse on this site, cookies collect data to enhance your experience and personalize the content and advertising you see.
Visit our Privacy Policy to learn more. By continuing to use the site, you agree to this use of cookies and data.
EN

Hourly Weather Smolan

Today, 5 July, Sunday

Time Temperature Precipitation Wind Pressure Humidity
00:00 +15°C° 0.1 mm 1 mps 654 mmHg 89%
01:00 +15°C° 0.1 mm 1 mps 654 mmHg 90%
02:00 +15°C° 0 mm 2 mps 654 mmHg 89%
03:00 +14°C° 0 mm 1 mps 654 mmHg 90%
04:00 +14°C° 0 mm 1 mps 653 mmHg 90%
05:00 +14°C° 0 mm 1 mps 653 mmHg 91%
06:00 +16°C° 0.1 mm 1 mps 654 mmHg 87%
07:00 +18°C° 0.1 mm 1 mps 655 mmHg 84%
08:00 +20°C° 0 mm 1 mps 656 mmHg 81%
09:00 +21°C° 1.2 mm 1 mps 656 mmHg 79%
10:00 +21°C° 1.2 mm 2 mps 656 mmHg 77%
11:00 +21°C° 1.2 mm 2 mps 656 mmHg 74%
12:00 +23°C° 1.7 mm 2 mps 656 mmHg 74%
13:00 +23°C° 1.7 mm 2 mps 656 mmHg 74%
14:00 +23°C° 1.7 mm 2 mps 655 mmHg 74%
15:00 +21°C° 1.4 mm 2 mps 655 mmHg 75%
16:00 +21°C° 1.4 mm 2 mps 654 mmHg 77%
17:00 +21°C° 1.4 mm 2 mps 654 mmHg 79%
18:00 +19°C° 0.3 mm 2 mps 653 mmHg 82%
19:00 +18°C° 0.3 mm 2 mps 653 mmHg 86%
20:00 +17°C° 0.3 mm 2 mps 653 mmHg 89%
21:00 +16°C° 0.2 mm 2 mps 653 mmHg 90%
22:00 +15°C° 0.2 mm 2 mps 653 mmHg 91%
23:00 +15°C° 0.2 mm 2 mps 653 mmHg 92%

Tomorrow, 6 July, Monday

Time Temperature Precipitation Wind Pressure Humidity
00:00 +15°C° 0 mm 2 mps 653 mmHg 92%
01:00 +14°C° 0 mm 2 mps 652 mmHg 92%
02:00 +14°C° 0 mm 2 mps 652 mmHg 92%
03:00 +14°C° 0 mm 2 mps 652 mmHg 92%
04:00 +15°C° 0 mm 2 mps 652 mmHg 92%
05:00 +15°C° 0 mm 2 mps 652 mmHg 92%
06:00 +16°C° 0 mm 3 mps 652 mmHg 89%
07:00 +18°C° 0 mm 3 mps 652 mmHg 85%
08:00 +19°C° 0 mm 3 mps 653 mmHg 81%
09:00 +20°C° 0 mm 3 mps 653 mmHg 73%
10:00 +22°C° 0 mm 3 mps 653 mmHg 66%
11:00 +24°C° 0 mm 3 mps 654 mmHg 58%
12:00 +25°C° 0.1 mm 3 mps 653 mmHg 58%
13:00 +25°C° 0.1 mm 3 mps 653 mmHg 57%
14:00 +25°C° 0.1 mm 3 mps 653 mmHg 57%
15:00 +25°C° 0.3 mm 3 mps 652 mmHg 61%
16:00 +24°C° 0.3 mm 3 mps 652 mmHg 65%
17:00 +24°C° 0.3 mm 3 mps 651 mmHg 69%
18:00 +21°C° 0.1 mm 2 mps 651 mmHg 74%
19:00 +19°C° 0.1 mm 2 mps 650 mmHg 80%
20:00 +18°C° 0.1 mm 2 mps 650 mmHg 85%
21:00 +17°C° 0.3 mm 2 mps 650 mmHg 87%
22:00 +17°C° 0.3 mm 2 mps 650 mmHg 88%
23:00 +16°C° 0.3 mm 2 mps 650 mmHg 90%

Day after tomorrow, 7 July, Tuesday

Time Temperature Precipitation Wind Pressure Humidity
00:00 +16°C° 0.2 mm 2 mps 649 mmHg 91%
01:00 +16°C° 0.2 mm 2 mps 649 mmHg 91%
02:00 +15°C° 0.2 mm 1 mps 649 mmHg 92%
03:00 +15°C° 0 mm 1 mps 649 mmHg 92%
04:00 +15°C° 0 mm 1 mps 649 mmHg 92%
05:00 +15°C° 0 mm 1 mps 648 mmHg 91%
06:00 +18°C° 0.1 mm 1 mps 649 mmHg 86%
07:00 +20°C° 0.1 mm 1 mps 650 mmHg 81%
08:00 +21°C° 0.1 mm 1 mps 651 mmHg 76%
09:00 +23°C° 0.1 mm 1 mps 652 mmHg 67%
10:00 +24°C° 0.1 mm 2 mps 652 mmHg 59%
11:00 +26°C° 0.1 mm 2 mps 653 mmHg 50%
12:00 +25°C° 0.7 mm 2 mps 652 mmHg 55%
13:00 +25°C° 0.7 mm 2 mps 652 mmHg 60%
14:00 +24°C° 0.7 mm 2 mps 652 mmHg 65%
15:00 +23°C° 1.7 mm 2 mps 652 mmHg 70%
16:00 +21°C° 1.7 mm 2 mps 652 mmHg 75%
17:00 +20°C° 1.7 mm 2 mps 651 mmHg 79%
18:00 +18°C° 1.5 mm 2 mps 651 mmHg 84%
19:00 +16°C° 1.5 mm 2 mps 651 mmHg 88%
20:00 +15°C° 1.5 mm 2 mps 651 mmHg 93%
21:00 +14°C° 0.1 mm 2 mps 651 mmHg 93%
22:00 +14°C° 0.1 mm 2 mps 652 mmHg 92%
23:00 +13°C° 0.1 mm 2 mps 652 mmHg 92%

8 July, Wednesday

Time Temperature Precipitation Wind Pressure Humidity
00:00 +12°C° 0 mm 2 mps 652 mmHg 92%
01:00 +12°C° 0 mm 2 mps 652 mmHg 91%
02:00 +10°C° 0 mm 2 mps 652 mmHg 91%
03:00 +10°C° 0 mm 2 mps 652 mmHg 91%
04:00 +9°C° 0 mm 2 mps 652 mmHg 91%
05:00 +9°C° 0 mm 2 mps 652 mmHg 91%
06:00 +12°C° 0 mm 1 mps 653 mmHg 87%
07:00 +13°C° 0 mm 1 mps 654 mmHg 83%
08:00 +15°C° 0 mm 1 mps 655 mmHg 78%
09:00 +15°C° 0 mm 1 mps 655 mmHg 76%
10:00 +16°C° 0 mm 2 mps 655 mmHg 74%
11:00 +17°C° 0 mm 2 mps 656 mmHg 71%
12:00 +17°C° 0.1 mm 2 mps 656 mmHg 69%
13:00 +17°C° 0.1 mm 2 mps 656 mmHg 67%
14:00 +18°C° 0.1 mm 2 mps 656 mmHg 65%
15:00 +17°C° 0.1 mm 2 mps 656 mmHg 66%
16:00 +17°C° 0.1 mm 2 mps 656 mmHg 68%
17:00 +17°C° 0.1 mm 2 mps 656 mmHg 69%
18:00 +15°C° 0 mm 2 mps 655 mmHg 75%
19:00 +14°C° 0 mm 2 mps 655 mmHg 80%
20:00 +13°C° 0 mm 1 mps 655 mmHg 86%
21:00 +12°C° 0 mm 1 mps 655 mmHg 87%
22:00 +10°C° 0 mm 2 mps 655 mmHg 88%
23:00 +9°C° 0 mm 2 mps 655 mmHg 90%

9 July, Thursday

Time Temperature Precipitation Wind Pressure Humidity
00:00 +9°C° 0 mm 2 mps 655 mmHg 89%
01:00 +9°C° 0 mm 2 mps 655 mmHg 89%
02:00 +8°C° 0 mm 2 mps 655 mmHg 89%
03:00 +8°C° 0 mm 2 mps 655 mmHg 89%
04:00 +8°C° 0 mm 2 mps 655 mmHg 88%
05:00 +8°C° 0 mm 2 mps 655 mmHg 88%
06:00 +11°C° 0 mm 1 mps 656 mmHg 81%
07:00 +13°C° 0 mm 1 mps 657 mmHg 74%
08:00 +16°C° 0 mm 1 mps 658 mmHg 67%
09:00 +18°C° 0 mm 1 mps 659 mmHg 62%
10:00 +19°C° 0 mm 2 mps 659 mmHg 57%
11:00 +20°C° 0 mm 2 mps 660 mmHg 52%
12:00 +21°C° 0 mm 2 mps 659 mmHg 53%
13:00 +21°C° 0 mm 3 mps 659 mmHg 55%
14:00 +21°C° 0 mm 3 mps 659 mmHg 56%
15:00 +20°C° 0 mm 3 mps 659 mmHg 59%
16:00 +20°C° 0 mm 2 mps 658 mmHg 63%
17:00 +19°C° 0 mm 2 mps 658 mmHg 66%
18:00 +17°C° 0 mm 2 mps 658 mmHg 74%
19:00 +16°C° 0 mm 1 mps 657 mmHg 81%
20:00 +14°C° 0 mm 1 mps 657 mmHg 88%
21:00 +13°C° 0 mm 1 mps 657 mmHg 89%
22:00 +13°C° 0 mm 1 mps 657 mmHg 90%
23:00 +12°C° 0 mm 1 mps 657 mmHg 91%

10 July, Friday

Time Temperature Precipitation Wind Pressure Humidity
00:00 +12°C° 0 mm 1 mps 657 mmHg 91%
01:00 +12°C° 0 mm 1 mps 657 mmHg 91%
02:00 +11°C° 0 mm 1 mps 657 mmHg 92%
03:00 +11°C° 0 mm 1 mps 657 mmHg 91%
04:00 +10°C° 0 mm 2 mps 657 mmHg 91%
05:00 +10°C° 0 mm 2 mps 657 mmHg 90%
06:00 +13°C° 0 mm 2 mps 657 mmHg 80%
07:00 +15°C° 0 mm 2 mps 658 mmHg 70%
08:00 +17°C° 0 mm 2 mps 659 mmHg 60%
09:00 +18°C° 0 mm 2 mps 659 mmHg 55%
10:00 +19°C° 0 mm 2 mps 660 mmHg 51%
11:00 +21°C° 0 mm 3 mps 660 mmHg 46%
12:00 +21°C° 0 mm 3 mps 660 mmHg 46%
13:00 +22°C° 0 mm 3 mps 659 mmHg 46%
14:00 +22°C° 0 mm 3 mps 659 mmHg 46%
15:00 +22°C° 0 mm 3 mps 659 mmHg 49%
16:00 +21°C° 0 mm 3 mps 659 mmHg 52%
17:00 +21°C° 0 mm 3 mps 658 mmHg 54%
18:00 +19°C° 0 mm 2 mps 658 mmHg 63%
19:00 +17°C° 0 mm 2 mps 657 mmHg 72%
20:00 +15°C° 0 mm 1 mps 657 mmHg 81%
21:00 +14°C° 0 mm 1 mps 657 mmHg 84%
22:00 +13°C° 0 mm 1 mps 657 mmHg 87%
23:00 +13°C° 0 mm 1 mps 657 mmHg 90%
Show more